Year,Month,Day,Hour,Minute,Value (Times are PST for temperature in C)
2007,06,20,00,01,12.40
2007,06,20,00,02,12.40
2007,06,20,00,03,12.30
2007,06,20,00,04,12.30
2007,06,20,00,05,12.30
2007,06,20,00,06,12.30
2007,06,20,00,07,12.30
2007,06,20,00,08,12.30
2007,06,20,00,09,12.30
2007,06,20,00,10,12.30
2007,06,20,00,11,12.30
2007,06,20,00,12,12.30
2007,06,20,00,13,12.20
2007,06,20,00,14,12.20
2007,06,20,00,15,12.20
2007,06,20,00,16,12.20
2007,06,20,00,17,12.20
2007,06,20,00,18,12.10
2007,06,20,00,19,12.10
2007,06,20,00,20,12.10
2007,06,20,00,21,12.10
2007,06,20,00,22,12.10
2007,06,20,00,23,12.10
2007,06,20,00,24,12.00
2007,06,20,00,25,12.00
2007,06,20,00,26,12.00
2007,06,20,00,27,12.00
2007,06,20,00,28,12.00
2007,06,20,00,29,12.10
2007,06,20,00,30,12.10
2007,06,20,00,31,12.10
2007,06,20,00,32,12.10
2007,06,20,00,33,12.10
2007,06,20,00,34,12.10
2007,06,20,00,35,12.10
2007,06,20,00,36,12.10
2007,06,20,00,37,12.10
2007,06,20,00,38,12.10
2007,06,20,00,39,12.10
2007,06,20,00,40,12.10
2007,06,20,00,41,12.10
2007,06,20,00,42,12.10
2007,06,20,00,43,12.20
2007,06,20,00,44,12.20
2007,06,20,00,45,12.10
2007,06,20,00,46,12.10
2007,06,20,00,47,12.10
2007,06,20,00,48,12.10
2007,06,20,00,49,12.00
2007,06,20,00,50,12.00
2007,06,20,00,51,12.00
2007,06,20,00,52,12.00
2007,06,20,00,53,12.00
2007,06,20,00,54,11.90
2007,06,20,00,55,11.90
2007,06,20,00,56,11.90
2007,06,20,00,57,11.90
2007,06,20,00,58,11.80
2007,06,20,00,59,11.80
2007,06,20,01,00,11.80
2007,06,20,01,01,11.80
2007,06,20,01,02,11.80
2007,06,20,01,03,11.80
2007,06,20,01,04,11.80
2007,06,20,01,05,11.70
2007,06,20,01,06,11.70
2007,06,20,01,07,11.70
2007,06,20,01,08,11.70
2007,06,20,01,09,11.70
2007,06,20,01,10,11.70
2007,06,20,01,11,11.60
2007,06,20,01,12,11.60
2007,06,20,01,13,11.60
2007,06,20,01,14,11.60
2007,06,20,01,15,11.60
2007,06,20,01,16,11.60
2007,06,20,01,17,11.60
2007,06,20,01,18,11.60
2007,06,20,01,19,11.60
2007,06,20,01,20,11.60
2007,06,20,01,21,11.60
2007,06,20,01,22,11.60
2007,06,20,01,23,11.60
2007,06,20,01,24,11.40
2007,06,20,01,25,11.40
2007,06,20,01,26,11.40
2007,06,20,01,27,11.40
2007,06,20,01,28,11.40
2007,06,20,01,31,11.30
2007,06,20,01,32,11.30
2007,06,20,01,33,11.30
2007,06,20,01,34,11.30
2007,06,20,01,35,11.30
2007,06,20,01,36,11.20
2007,06,20,01,37,11.20
2007,06,20,01,38,11.20
2007,06,20,01,39,11.20
2007,06,20,01,40,11.10
2007,06,20,01,41,11.10
2007,06,20,01,42,11.10
2007,06,20,01,43,11.10
2007,06,20,01,44,11.10
2007,06,20,01,45,11.10
2007,06,20,01,46,11.10
2007,06,20,01,47,11.10
2007,06,20,01,48,11.10
2007,06,20,01,49,11.10
2007,06,20,01,50,11.10
2007,06,20,01,51,11.10
2007,06,20,01,52,11.10
2007,06,20,01,53,11.10
2007,06,20,01,54,11.10
2007,06,20,01,55,11.10
2007,06,20,01,56,11.10
2007,06,20,01,57,11.10
2007,06,20,01,58,11.10
2007,06,20,01,59,11.10
2007,06,20,02,00,11.10
2007,06,20,02,01,11.10
2007,06,20,02,02,10.90
2007,06,20,02,03,10.90
2007,06,20,02,04,10.90
2007,06,20,02,05,10.90
2007,06,20,02,06,10.90
2007,06,20,02,07,10.90
2007,06,20,02,08,10.90
2007,06,20,02,09,10.90
2007,06,20,02,10,10.90
2007,06,20,02,11,10.90
2007,06,20,02,12,10.90
2007,06,20,02,13,10.90
2007,06,20,02,14,10.90
2007,06,20,02,15,10.90
2007,06,20,02,16,10.90
2007,06,20,02,17,10.90
2007,06,20,02,18,10.90
2007,06,20,02,19,10.90
2007,06,20,02,20,10.90
2007,06,20,02,21,10.90
2007,06,20,02,22,10.90
2007,06,20,02,23,10.90
2007,06,20,02,24,10.90
2007,06,20,02,25,10.90
2007,06,20,02,26,10.90
2007,06,20,02,27,11.10
2007,06,20,02,28,11.10
2007,06,20,02,29,11.10
2007,06,20,02,30,11.10
2007,06,20,02,31,11.10
2007,06,20,02,32,11.10
2007,06,20,02,33,11.10
2007,06,20,02,34,11.10
2007,06,20,02,35,10.90
2007,06,20,02,36,10.90
2007,06,20,02,37,10.90
2007,06,20,02,38,10.90
2007,06,20,02,39,10.90
2007,06,20,02,40,10.90
2007,06,20,02,41,10.90
2007,06,20,02,42,10.90
2007,06,20,02,43,10.90
2007,06,20,02,44,10.90
2007,06,20,02,45,10.90
2007,06,20,02,46,10.80
2007,06,20,02,47,10.80
2007,06,20,02,48,10.80
2007,06,20,02,49,10.80
2007,06,20,02,50,10.80
2007,06,20,02,51,10.70
2007,06,20,02,52,10.70
2007,06,20,02,53,10.70
2007,06,20,02,54,10.70
2007,06,20,02,55,10.70
2007,06,20,02,56,10.60
2007,06,20,02,57,10.60
2007,06,20,02,58,10.60
2007,06,20,02,59,10.60
2007,06,20,03,00,10.60
2007,06,20,03,01,10.60
2007,06,20,03,02,10.60
2007,06,20,03,03,10.60
2007,06,20,03,04,10.60
2007,06,20,03,05,10.60
2007,06,20,03,06,10.60
2007,06,20,03,08,10.40
2007,06,20,03,09,10.40
2007,06,20,03,10,10.40
2007,06,20,03,11,10.40
2007,06,20,03,12,10.40
2007,06,20,03,13,10.40
2007,06,20,03,14,10.40
2007,06,20,03,15,10.40
2007,06,20,03,16,10.40
2007,06,20,03,17,10.40
2007,06,20,03,18,10.40
2007,06,20,03,19,10.40
2007,06,20,03,20,10.40
2007,06,20,03,21,10.40
2007,06,20,03,22,10.40
2007,06,20,03,23,10.40
2007,06,20,03,24,10.40
2007,06,20,03,25,10.40
2007,06,20,03,26,10.40
2007,06,20,03,27,10.40
2007,06,20,03,28,10.40
2007,06,20,03,29,10.40
2007,06,20,03,30,10.40
2007,06,20,03,31,10.40
2007,06,20,03,32,10.40
2007,06,20,03,33,10.40
2007,06,20,03,34,10.40
2007,06,20,03,35,10.40
2007,06,20,03,36,10.40
2007,06,20,03,37,10.40
2007,06,20,03,38,10.40
2007,06,20,03,39,10.40
2007,06,20,03,40,10.40
2007,06,20,03,41,10.40
2007,06,20,03,42,10.40
2007,06,20,03,43,10.30
2007,06,20,03,44,10.30
2007,06,20,03,45,10.30
2007,06,20,03,46,10.30
2007,06,20,03,47,10.30
2007,06,20,03,48,10.30
2007,06,20,03,49,10.20
2007,06,20,03,50,10.20
2007,06,20,03,51,10.20
2007,06,20,03,52,10.20
2007,06,20,03,53,10.20
2007,06,20,03,54,10.10
2007,06,20,03,55,10.10
2007,06,20,03,56,10.10
2007,06,20,03,57,10.10
2007,06,20,03,58,10.10
2007,06,20,03,59,10.10
2007,06,20,04,00,10.10
2007,06,20,04,01,10.10
2007,06,20,04,02,9.90
2007,06,20,04,03,9.90
2007,06,20,04,04,9.90
2007,06,20,04,05,9.90
2007,06,20,04,06,9.90
2007,06,20,04,07,9.90
2007,06,20,04,08,9.90
2007,06,20,04,09,9.90
2007,06,20,04,10,9.90
2007,06,20,04,11,9.90
2007,06,20,04,12,9.90
2007,06,20,04,13,9.90
2007,06,20,04,14,9.90
2007,06,20,04,15,9.90
2007,06,20,04,16,9.90
2007,06,20,04,17,9.90
2007,06,20,04,18,9.90
2007,06,20,04,19,9.90
2007,06,20,04,20,9.90
2007,06,20,04,21,9.90
2007,06,20,04,22,9.90
2007,06,20,04,23,9.90
2007,06,20,04,24,9.90
2007,06,20,04,25,9.90
2007,06,20,04,26,9.90
2007,06,20,04,27,9.90
2007,06,20,04,28,10.10
2007,06,20,04,29,10.10
2007,06,20,04,30,10.10
2007,06,20,04,31,10.10
2007,06,20,04,32,10.10
2007,06,20,04,33,10.10
2007,06,20,04,34,10.10
2007,06,20,04,35,10.10
2007,06,20,04,36,10.20
2007,06,20,04,37,10.20
2007,06,20,04,38,10.20
2007,06,20,04,39,10.20
2007,06,20,04,40,10.20
2007,06,20,04,41,10.20
2007,06,20,04,42,10.20
2007,06,20,04,43,10.20
2007,06,20,04,44,10.20
2007,06,20,04,45,10.20
2007,06,20,04,46,10.20
2007,06,20,04,47,10.20
2007,06,20,04,48,10.20
2007,06,20,04,49,10.20
2007,06,20,04,50,10.20
2007,06,20,04,51,10.20
2007,06,20,04,52,10.20
2007,06,20,04,53,10.20
2007,06,20,04,54,10.20
2007,06,20,04,55,10.20
2007,06,20,04,56,10.20
2007,06,20,04,57,10.20
2007,06,20,04,58,10.20
2007,06,20,04,59,10.20
2007,06,20,05,17,10.10
2007,06,20,05,18,10.10
2007,06,20,05,19,10.10
2007,06,20,05,20,10.10
2007,06,20,05,21,10.10
2007,06,20,05,22,10.10
2007,06,20,05,23,10.10
2007,06,20,05,24,10.10
2007,06,20,05,25,10.10
2007,06,20,05,26,10.10
2007,06,20,05,27,10.10
2007,06,20,05,28,10.10
2007,06,20,05,29,10.10
2007,06,20,05,30,9.90
2007,06,20,05,31,9.90
2007,06,20,05,32,9.90
2007,06,20,05,33,9.90
2007,06,20,05,34,9.90
2007,06,20,05,35,9.90
2007,06,20,05,36,9.90
2007,06,20,05,37,9.90
2007,06,20,05,45,9.90
2007,06,20,05,46,9.90
2007,06,20,05,47,9.90
2007,06,20,05,48,9.90
2007,06,20,05,55,9.80
2007,06,20,05,56,9.80
2007,06,20,05,57,9.80
2007,06,20,05,58,9.70
2007,06,20,05,59,9.70
2007,06,20,06,00,9.70
2007,06,20,06,01,9.70
2007,06,20,06,02,9.70
2007,06,20,06,03,9.70
2007,06,20,06,04,9.70
2007,06,20,06,05,9.70
2007,06,20,06,06,9.70
2007,06,20,06,07,9.70
2007,06,20,06,08,9.70
2007,06,20,06,09,9.70
2007,06,20,06,10,9.70
2007,06,20,06,11,9.70
2007,06,20,06,12,9.70
2007,06,20,06,13,9.70
2007,06,20,06,14,9.70
2007,06,20,06,15,9.80
2007,06,20,06,16,9.80
2007,06,20,06,17,9.80
2007,06,20,06,18,9.80
2007,06,20,06,19,9.90
2007,06,20,06,20,9.90
2007,06,20,06,21,9.90
2007,06,20,06,22,9.90
2007,06,20,06,23,9.90
2007,06,20,06,24,9.90
2007,06,20,06,25,9.90
2007,06,20,06,28,10.10
2007,06,20,06,29,10.10
2007,06,20,06,30,10.10
2007,06,20,06,31,10.10
2007,06,20,06,32,10.10
2007,06,20,06,33,10.20
2007,06,20,06,34,10.20
2007,06,20,06,35,10.20
2007,06,20,06,36,10.20
2007,06,20,06,37,10.30
2007,06,20,06,40,10.30
2007,06,20,06,41,10.40
2007,06,20,06,42,10.40
2007,06,20,06,43,10.40
2007,06,20,06,44,10.40
2007,06,20,06,45,10.40
2007,06,20,06,46,10.40
2007,06,20,06,47,10.40
2007,06,20,06,48,10.60
2007,06,20,06,49,10.60
2007,06,20,06,50,10.60
2007,06,20,06,51,10.60
2007,06,20,06,52,10.60
2007,06,20,06,53,10.60
2007,06,20,06,54,10.60
2007,06,20,06,55,10.70
2007,06,20,06,56,10.70
2007,06,20,06,57,10.70
2007,06,20,06,58,10.70
2007,06,20,06,59,10.80
2007,06,20,07,00,10.80
2007,06,20,07,01,10.90
2007,06,20,07,02,10.90
2007,06,20,07,03,10.90
2007,06,20,07,04,10.90
2007,06,20,07,05,11.10
2007,06,20,07,06,11.10
2007,06,20,07,07,11.10
2007,06,20,07,08,11.10
2007,06,20,07,09,11.10
2007,06,20,07,10,11.20
2007,06,20,07,11,11.20
2007,06,20,07,12,11.20
2007,06,20,07,13,11.30
2007,06,20,07,14,11.30
2007,06,20,07,15,11.40
2007,06,20,07,16,11.40
2007,06,20,07,17,11.40
2007,06,20,07,18,11.40
2007,06,20,07,19,11.60
2007,06,20,07,20,11.60
2007,06,20,07,21,11.60
2007,06,20,07,22,11.60
2007,06,20,07,23,11.60
2007,06,20,07,24,11.60
2007,06,20,07,25,11.70
2007,06,20,07,26,11.70
2007,06,20,07,27,11.70
2007,06,20,07,28,11.80
2007,06,20,07,30,11.80
2007,06,20,07,31,11.80
2007,06,20,07,32,11.80
2007,06,20,07,33,11.90
2007,06,20,07,34,11.90
2007,06,20,07,35,12.00
2007,06,20,07,36,12.00
2007,06,20,07,37,12.10
2007,06,20,07,38,12.10
2007,06,20,07,39,12.20
2007,06,20,07,40,12.20
2007,06,20,07,41,12.30
2007,06,20,07,42,12.30
2007,06,20,07,43,12.30
2007,06,20,07,44,12.30
2007,06,20,07,45,12.40
2007,06,20,07,46,12.50
2007,06,20,07,47,12.50
2007,06,20,07,48,12.60
2007,06,20,07,49,12.60
2007,06,20,07,50,12.70
2007,06,20,07,51,12.70
2007,06,20,07,52,12.80
2007,06,20,07,53,12.80
2007,06,20,07,54,12.80
2007,06,20,07,55,12.80
2007,06,20,07,56,12.80
2007,06,20,07,57,12.90
2007,06,20,07,58,12.90
2007,06,20,07,59,12.90
2007,06,20,08,00,13.00
2007,06,20,08,01,13.00
2007,06,20,08,02,13.00
2007,06,20,08,03,13.10
2007,06,20,08,04,13.10
2007,06,20,08,05,13.10
2007,06,20,08,06,13.20
2007,06,20,08,07,13.20
2007,06,20,08,08,13.30
2007,06,20,08,09,13.30
2007,06,20,08,10,13.30
2007,06,20,08,11,13.40
2007,06,20,08,12,13.40
2007,06,20,08,13,13.50
2007,06,20,08,14,13.60
2007,06,20,08,15,13.70
2007,06,20,08,16,13.70
2007,06,20,08,17,13.70
2007,06,20,08,18,13.80
2007,06,20,08,19,13.80
2007,06,20,08,20,13.90
2007,06,20,08,21,13.90
2007,06,20,08,22,13.90
2007,06,20,08,23,13.90
2007,06,20,08,24,14.00
2007,06,20,08,25,14.00
2007,06,20,08,26,14.10
2007,06,20,08,27,14.20
2007,06,20,08,28,14.20
2007,06,20,08,29,14.30
2007,06,20,08,30,14.40
2007,06,20,08,31,14.40
2007,06,20,08,32,14.40
2007,06,20,08,33,14.50
2007,06,20,08,34,14.60
2007,06,20,08,35,14.60
2007,06,20,08,36,14.70
2007,06,20,08,37,14.80
2007,06,20,08,38,14.80
2007,06,20,08,39,14.80
2007,06,20,08,40,14.90
2007,06,20,08,41,14.90
2007,06,20,08,42,14.90
2007,06,20,08,43,14.90
2007,06,20,08,44,15.00
2007,06,20,08,45,15.00
2007,06,20,08,46,15.10
2007,06,20,08,47,15.10
2007,06,20,08,48,15.00
2007,06,20,08,49,14.90
2007,06,20,08,50,14.80
2007,06,20,08,51,14.80
2007,06,20,08,52,14.80
2007,06,20,08,53,14.70
2007,06,20,08,54,14.70
2007,06,20,08,55,14.60
2007,06,20,08,56,14.60
2007,06,20,08,57,14.60
2007,06,20,08,58,14.60
2007,06,20,08,59,14.70
2007,06,20,09,00,14.60
2007,06,20,09,01,14.70
2007,06,20,09,02,14.60
2007,06,20,09,03,14.60
2007,06,20,09,04,14.70
2007,06,20,09,05,14.70
2007,06,20,09,06,14.80
2007,06,20,09,07,14.80
2007,06,20,09,08,14.80
2007,06,20,09,09,14.90
2007,06,20,09,10,15.00
2007,06,20,09,11,15.10
2007,06,20,09,12,15.20
2007,06,20,09,13,15.30
2007,06,20,09,14,15.30
2007,06,20,09,15,15.30
2007,06,20,09,16,15.30
2007,06,20,09,17,15.40
2007,06,20,09,18,15.40
2007,06,20,09,19,15.50
2007,06,20,09,20,15.60
2007,06,20,09,21,15.70
2007,06,20,09,22,15.70
2007,06,20,09,23,15.80
2007,06,20,09,24,15.80
2007,06,20,09,25,15.90
2007,06,20,09,26,16.10
2007,06,20,09,27,16.10
2007,06,20,09,28,16.20
2007,06,20,09,29,16.30
2007,06,20,09,30,16.40
2007,06,20,09,31,16.40
2007,06,20,09,32,16.40
2007,06,20,09,33,16.40
2007,06,20,09,34,16.60
2007,06,20,09,35,16.60
2007,06,20,09,36,16.60
2007,06,20,09,37,16.60
2007,06,20,09,38,16.70
2007,06,20,09,39,16.70
2007,06,20,09,40,16.70
2007,06,20,09,41,16.70
2007,06,20,09,42,16.70
2007,06,20,09,43,16.70
2007,06,20,09,44,16.70
2007,06,20,09,45,16.70
2007,06,20,09,46,16.80
2007,06,20,09,47,16.80
2007,06,20,09,48,16.80
2007,06,20,09,49,16.90
2007,06,20,09,50,16.90
2007,06,20,09,51,16.90
2007,06,20,09,52,16.90
2007,06,20,09,53,17.00
2007,06,20,09,54,17.00
2007,06,20,09,55,17.00
2007,06,20,09,56,17.00
2007,06,20,09,57,17.00
2007,06,20,09,58,17.00
2007,06,20,09,59,17.00
2007,06,20,10,00,17.10
2007,06,20,10,01,17.10
2007,06,20,10,02,17.20
2007,06,20,10,03,17.30
2007,06,20,10,04,17.30
2007,06,20,10,05,17.30
2007,06,20,10,06,17.30
2007,06,20,10,07,17.30
2007,06,20,10,08,17.40
2007,06,20,10,09,17.40
2007,06,20,10,10,17.50
2007,06,20,10,11,17.50
2007,06,20,10,12,17.60
2007,06,20,10,13,17.60
2007,06,20,10,14,17.70
2007,06,20,10,15,17.70
2007,06,20,10,16,17.80
2007,06,20,10,17,17.80
2007,06,20,10,18,17.80
2007,06,20,10,19,17.90
2007,06,20,10,20,17.90
2007,06,20,10,21,17.90
2007,06,20,10,22,18.10
2007,06,20,10,23,18.20
2007,06,20,10,24,18.20
2007,06,20,10,25,18.20
2007,06,20,10,26,18.20
2007,06,20,10,27,18.20
2007,06,20,10,28,18.20
2007,06,20,10,29,18.30
2007,06,20,10,30,18.30
2007,06,20,10,31,18.40
2007,06,20,10,32,18.40
2007,06,20,10,33,18.40
2007,06,20,10,34,18.40
2007,06,20,10,35,18.50
2007,06,20,10,36,18.50
2007,06,20,10,37,18.60
2007,06,20,10,38,18.60
2007,06,20,10,39,18.60
2007,06,20,10,40,18.70
2007,06,20,10,41,18.70
2007,06,20,10,42,18.70
2007,06,20,10,43,18.70
2007,06,20,10,44,18.70
2007,06,20,10,45,18.70
2007,06,20,10,46,18.60
2007,06,20,10,47,18.50
2007,06,20,10,48,18.40
2007,06,20,10,49,18.30
2007,06,20,10,50,18.20
2007,06,20,10,51,18.10
2007,06,20,10,52,17.90
2007,06,20,10,53,17.90
2007,06,20,10,54,17.80
2007,06,20,10,55,17.70
2007,06,20,10,56,17.60
2007,06,20,10,57,17.40
2007,06,20,10,58,17.30
2007,06,20,10,59,17.30
2007,06,20,11,00,17.10
2007,06,20,11,01,17.00
2007,06,20,11,02,16.90
2007,06,20,11,03,16.80
2007,06,20,11,04,16.80
2007,06,20,11,05,16.80
2007,06,20,11,06,16.80
2007,06,20,11,07,16.70
2007,06,20,11,08,16.70
2007,06,20,11,09,16.70
2007,06,20,11,10,16.70
2007,06,20,11,11,16.70
2007,06,20,11,12,16.80
2007,06,20,11,13,16.90
2007,06,20,11,14,17.00
2007,06,20,11,15,17.10
2007,06,20,11,16,17.20
2007,06,20,11,17,17.30
2007,06,20,11,18,17.30
2007,06,20,11,19,17.40
2007,06,20,11,20,17.50
2007,06,20,11,21,17.60
2007,06,20,11,22,17.70
2007,06,20,11,23,17.80
2007,06,20,11,24,17.90
2007,06,20,11,25,17.90
2007,06,20,11,26,17.80
2007,06,20,11,27,17.70
2007,06,20,11,28,17.60
2007,06,20,11,29,17.70
2007,06,20,11,30,17.70
2007,06,20,11,31,17.80
2007,06,20,11,32,17.90
2007,06,20,11,33,17.90
2007,06,20,11,34,18.10
2007,06,20,11,35,18.20
2007,06,20,11,36,18.40
2007,06,20,11,37,18.60
2007,06,20,11,38,18.80
2007,06,20,11,39,18.90
2007,06,20,11,40,19.10
2007,06,20,11,41,19.30
2007,06,20,11,42,19.50
2007,06,20,11,43,19.70
2007,06,20,11,44,19.80
2007,06,20,11,45,19.90
2007,06,20,11,46,20.10
2007,06,20,11,47,20.10
2007,06,20,11,48,20.20
2007,06,20,11,49,20.20
2007,06,20,11,50,20.20
2007,06,20,11,51,20.20
2007,06,20,11,52,20.20
2007,06,20,11,53,20.20
2007,06,20,11,54,20.20
2007,06,20,11,55,20.20
2007,06,20,11,56,20.20
2007,06,20,11,57,20.20
2007,06,20,11,58,20.20
2007,06,20,11,59,20.20
2007,06,20,12,00,20.30
2007,06,20,12,01,20.30
2007,06,20,12,02,20.40
2007,06,20,12,03,20.40
2007,06,20,12,04,20.50
2007,06,20,12,05,20.60
2007,06,20,12,06,20.70
2007,06,20,12,07,20.80
2007,06,20,12,08,20.80
2007,06,20,12,09,20.90
2007,06,20,12,10,21.00
2007,06,20,12,11,21.20
2007,06,20,12,12,21.30
2007,06,20,12,13,21.30
2007,06,20,12,14,21.30
2007,06,20,12,15,21.40
2007,06,20,12,16,21.40
2007,06,20,12,17,21.60
2007,06,20,12,18,21.60
2007,06,20,12,19,21.60
2007,06,20,12,20,21.70
2007,06,20,12,21,21.70
2007,06,20,12,22,21.60
2007,06,20,12,23,21.60
2007,06,20,12,24,21.60
2007,06,20,12,25,21.60
2007,06,20,12,26,21.60
2007,06,20,12,27,21.60
2007,06,20,12,28,21.60
2007,06,20,12,29,21.60
2007,06,20,12,30,21.60
2007,06,20,12,31,21.60
2007,06,20,12,32,21.60
2007,06,20,12,33,21.60
2007,06,20,12,34,21.60
2007,06,20,12,35,21.60
2007,06,20,12,37,21.70
2007,06,20,12,38,21.80
2007,06,20,12,39,21.80
2007,06,20,12,40,21.90
2007,06,20,12,41,22.00
2007,06,20,12,42,22.00
2007,06,20,12,43,22.10
2007,06,20,12,44,22.10
2007,06,20,12,45,22.10
2007,06,20,12,46,22.10
2007,06,20,12,47,22.10
2007,06,20,12,48,22.10
2007,06,20,12,49,22.10
2007,06,20,12,50,22.10
2007,06,20,12,51,22.10
2007,06,20,12,52,22.10
2007,06,20,12,53,22.10
2007,06,20,12,54,22.20
2007,06,20,12,55,22.20
2007,06,20,12,56,22.20
2007,06,20,12,57,22.20
2007,06,20,12,58,22.20
2007,06,20,12,59,22.20
2007,06,20,13,00,22.20
2007,06,20,13,01,22.20
2007,06,20,13,02,22.20
2007,06,20,13,03,22.20
2007,06,20,13,04,22.20
2007,06,20,13,05,22.20
2007,06,20,13,06,22.20
2007,06,20,13,07,22.20
2007,06,20,13,08,22.20
2007,06,20,13,09,22.30
2007,06,20,13,10,22.30
2007,06,20,13,11,22.40
2007,06,20,13,12,22.50
2007,06,20,13,13,22.50
2007,06,20,13,14,22.60
2007,06,20,13,15,22.60
2007,06,20,13,16,22.70
2007,06,20,13,17,22.70
2007,06,20,13,18,22.70
2007,06,20,13,19,22.70
2007,06,20,13,20,22.60
2007,06,20,13,21,22.50
2007,06,20,13,22,22.50
2007,06,20,13,23,22.40
2007,06,20,13,24,22.40
2007,06,20,13,25,22.40
2007,06,20,13,26,22.40
2007,06,20,13,27,22.40
2007,06,20,13,28,22.50
2007,06,20,13,29,22.50
2007,06,20,13,30,22.60
2007,06,20,13,31,22.60
2007,06,20,13,32,22.70
2007,06,20,13,33,22.80
2007,06,20,13,34,22.90
2007,06,20,13,35,22.90
2007,06,20,13,36,23.10
2007,06,20,13,37,23.20
2007,06,20,13,38,23.20
2007,06,20,13,39,23.30
2007,06,20,13,40,23.30
2007,06,20,13,41,23.30
2007,06,20,13,42,23.30
2007,06,20,13,43,23.40
2007,06,20,13,44,23.40
2007,06,20,13,45,23.60
2007,06,20,13,46,23.70
2007,06,20,13,47,23.70
2007,06,20,13,48,23.70
2007,06,20,13,49,23.70
2007,06,20,13,50,23.70
2007,06,20,13,51,23.70
2007,06,20,13,52,23.70
2007,06,20,13,53,23.70
2007,06,20,13,54,23.70
2007,06,20,13,55,23.80
2007,06,20,13,56,23.80
2007,06,20,13,57,23.80
2007,06,20,13,58,23.80
2007,06,20,13,59,23.80
2007,06,20,14,00,23.80
2007,06,20,14,01,23.80
2007,06,20,14,02,23.80
2007,06,20,14,03,23.80
2007,06,20,14,04,23.80
2007,06,20,14,05,23.90
2007,06,20,14,06,23.90
2007,06,20,14,07,23.90
2007,06,20,14,08,24.10
2007,06,20,14,09,24.10
2007,06,20,14,10,24.10
2007,06,20,14,11,24.10
2007,06,20,14,12,24.10
2007,06,20,14,13,24.10
2007,06,20,14,14,24.10
2007,06,20,14,15,24.10
2007,06,20,14,16,24.10
2007,06,20,14,17,24.20
2007,06,20,14,18,24.20
2007,06,20,14,19,24.30
2007,06,20,14,20,24.40
2007,06,20,14,21,24.40
2007,06,20,14,22,24.40
2007,06,20,14,23,24.40
2007,06,20,14,24,24.50
2007,06,20,14,25,24.50
2007,06,20,14,26,24.50
2007,06,20,14,27,24.50
2007,06,20,14,28,24.50
2007,06,20,14,29,24.50
2007,06,20,14,30,24.50
2007,06,20,14,31,24.50
2007,06,20,14,32,24.50
2007,06,20,14,33,24.60
2007,06,20,14,34,24.60
2007,06,20,14,35,24.70
2007,06,20,14,36,24.70
2007,06,20,14,37,24.80
2007,06,20,14,38,24.90
2007,06,20,14,39,25.00
2007,06,20,14,40,25.00
2007,06,20,14,41,25.00
2007,06,20,14,42,25.10
2007,06,20,14,43,25.10
2007,06,20,14,44,25.00
2007,06,20,14,45,25.00
2007,06,20,14,46,25.00
2007,06,20,14,47,24.90
2007,06,20,14,48,24.90
2007,06,20,14,49,24.90
2007,06,20,14,50,24.90
2007,06,20,14,51,24.90
2007,06,20,14,52,24.80
2007,06,20,14,53,24.80
2007,06,20,14,54,24.70
2007,06,20,14,55,24.70
2007,06,20,14,56,24.80
2007,06,20,14,57,24.80
2007,06,20,14,58,24.90
2007,06,20,14,59,24.90
2007,06,20,15,00,25.00
2007,06,20,15,01,25.10
2007,06,20,15,02,25.20
2007,06,20,15,03,25.20
2007,06,20,15,04,25.30
2007,06,20,15,05,25.40
2007,06,20,15,06,25.40
2007,06,20,15,07,25.40
2007,06,20,15,08,25.40
2007,06,20,15,09,25.30
2007,06,20,15,10,25.20
2007,06,20,15,11,25.10
2007,06,20,15,12,25.00
2007,06,20,15,13,24.80
2007,06,20,15,14,24.80
2007,06,20,15,15,24.60
2007,06,20,15,16,24.60
2007,06,20,15,17,24.40
2007,06,20,15,18,24.20
2007,06,20,15,19,24.20
2007,06,20,15,20,24.10
2007,06,20,15,21,24.10
2007,06,20,15,22,24.10
2007,06,20,15,23,24.10
2007,06,20,15,24,24.10
2007,06,20,15,25,24.20
2007,06,20,15,26,24.20
2007,06,20,15,27,24.20
2007,06,20,15,28,24.20
2007,06,20,15,29,24.20
2007,06,20,15,30,24.20
2007,06,20,15,31,24.20
2007,06,20,15,32,24.20
2007,06,20,15,33,24.20
2007,06,20,15,34,24.20
2007,06,20,15,35,24.20
2007,06,20,15,36,24.20
2007,06,20,15,37,24.20
2007,06,20,15,38,24.20
2007,06,20,15,39,24.20
2007,06,20,15,40,24.20
2007,06,20,15,41,24.10
2007,06,20,15,42,24.20
2007,06,20,15,43,24.20
2007,06,20,15,44,24.30
2007,06,20,15,45,24.40
2007,06,20,15,46,24.40
2007,06,20,15,47,24.50
2007,06,20,15,48,24.60
2007,06,20,15,49,24.70
2007,06,20,15,50,24.80
2007,06,20,15,51,24.90
2007,06,20,15,52,25.00
2007,06,20,15,53,25.00
2007,06,20,15,54,25.00
2007,06,20,15,55,25.10
2007,06,20,15,56,25.10
2007,06,20,15,57,25.10
2007,06,20,15,58,25.10
2007,06,20,15,59,25.10
2007,06,20,16,00,25.10
2007,06,20,16,01,25.10
2007,06,20,16,02,25.10
2007,06,20,16,03,25.10
2007,06,20,16,04,25.20
2007,06,20,16,05,25.20
2007,06,20,16,06,25.30
2007,06,20,16,07,25.30
2007,06,20,16,08,25.40
2007,06,20,16,09,25.40
2007,06,20,16,10,25.40
2007,06,20,16,11,25.40
2007,06,20,16,12,25.50
2007,06,20,16,13,25.60
2007,06,20,16,14,25.70
2007,06,20,16,15,25.80
2007,06,20,16,16,25.90
2007,06,20,16,17,25.90
2007,06,20,16,18,26.00
2007,06,20,16,19,26.10
2007,06,20,16,20,26.10
2007,06,20,16,21,26.10
2007,06,20,16,22,26.10
2007,06,20,16,23,26.10
2007,06,20,16,24,26.20
2007,06,20,16,25,26.30
2007,06,20,16,26,26.30
2007,06,20,16,27,26.30
2007,06,20,16,28,26.30
2007,06,20,16,29,26.20
2007,06,20,16,30,26.20
2007,06,20,16,31,26.10
2007,06,20,16,32,26.10
2007,06,20,16,33,26.10
2007,06,20,16,34,26.10
2007,06,20,16,35,26.20
2007,06,20,16,36,26.20
2007,06,20,16,37,26.20
2007,06,20,16,38,26.30
2007,06,20,16,39,26.40
2007,06,20,16,40,26.40
2007,06,20,16,41,26.60
2007,06,20,16,42,26.60
2007,06,20,16,43,26.60
2007,06,20,16,44,26.60
2007,06,20,16,45,26.40
2007,06,20,16,46,26.30
2007,06,20,16,47,26.30
2007,06,20,16,48,26.40
2007,06,20,16,49,26.40
2007,06,20,16,50,26.40
2007,06,20,16,51,26.60
2007,06,20,16,52,26.60
2007,06,20,16,53,26.60
2007,06,20,16,54,26.60
2007,06,20,16,55,26.60
2007,06,20,16,56,26.60
2007,06,20,16,57,26.60
2007,06,20,16,58,26.60
2007,06,20,16,59,26.60
2007,06,20,17,00,26.60
2007,06,20,17,01,26.40
2007,06,20,17,02,26.40
2007,06,20,17,03,26.40
2007,06,20,17,04,26.40
2007,06,20,17,05,26.40
2007,06,20,17,06,26.40
2007,06,20,17,07,26.40
2007,06,20,17,08,26.40
2007,06,20,17,09,26.40
2007,06,20,17,10,26.40
2007,06,20,17,11,26.40
2007,06,20,17,12,26.40
2007,06,20,17,13,26.60
2007,06,20,17,14,26.60
2007,06,20,17,15,26.60
2007,06,20,17,16,26.60
2007,06,20,17,17,26.60
2007,06,20,17,18,26.60
2007,06,20,17,19,26.60
2007,06,20,17,20,26.60
2007,06,20,17,21,26.40
2007,06,20,17,22,26.40
2007,06,20,17,23,26.40
2007,06,20,17,24,26.40
2007,06,20,17,25,26.40
2007,06,20,17,26,26.40
2007,06,20,17,27,26.40
2007,06,20,17,28,26.30
2007,06,20,17,29,26.30
2007,06,20,17,30,26.30
2007,06,20,17,31,26.30
2007,06,20,17,32,26.30
2007,06,20,17,33,26.30
2007,06,20,17,34,26.40
2007,06,20,17,35,26.60
2007,06,20,17,36,26.60
2007,06,20,17,37,26.60
2007,06,20,17,38,26.60
2007,06,20,17,39,26.60
2007,06,20,17,40,26.60
2007,06,20,17,41,26.60
2007,06,20,17,42,26.60
2007,06,20,17,43,26.60
2007,06,20,17,44,26.60
2007,06,20,17,45,26.60
2007,06,20,17,46,26.40
2007,06,20,17,47,26.40
2007,06,20,17,48,26.40
2007,06,20,17,49,26.40
2007,06,20,17,50,26.60
2007,06,20,17,51,26.60
2007,06,20,17,52,26.60
2007,06,20,17,53,26.40
2007,06,20,17,54,26.40
2007,06,20,17,55,26.40
2007,06,20,17,56,26.30
2007,06,20,17,57,26.30
2007,06,20,17,58,26.30
2007,06,20,17,59,26.20
2007,06,20,18,00,26.20
2007,06,20,18,01,26.10
2007,06,20,18,02,26.00